This is the latest recevied weather packets stored in our database for station/object YO3FNC-10. If no packets are shown the sender has not sent any weather packets the latest 10 day(s).
| Time | Temp. | Humidity | Pressure | Rain* | Wind** | Luminosity | Snow |
|---|---|---|---|---|---|---|---|
| 1788572857 | 30° C | 35% | 1016.6 hPa | - | - | - | - |
| 1788571957 | 30° C | 35% | 1016.6 hPa | - | - | - | - |
| 1788571057 | 30° C | 35% | 1016.6 hPa | - | - | - | - |
| 1788570156 | 29.44° C | 37% | 1016.6 hPa | - | - | - | - |
| 1788569256 | 28.33° C | 38% | 1016.5 hPa | - | - | - | - |
| 1788568355 | 28.33° C | 37% | 1016.7 hPa | - | - | - | - |
| 1788567455 | 28.89° C | 37% | 1016.6 hPa | - | - | - | - |
| 1788566555 | 29.44° C | 36% | 1016.6 hPa | - | - | - | - |
| 1788565675 | 29.44° C | 36% | 1016.5 hPa | - | - | - | - |
| 1788564755 | 28.89° C | 36% | 1016.6 hPa | - | - | - | - |
| 1788563883 | 29.44° C | 36% | 1016.7 hPa | - | - | - | - |
| 1788562954 | 29.44° C | 36% | 1016.8 hPa | - | - | - | - |
| 1788562054 | 29.44° C | 35% | 1016.9 hPa | - | - | - | - |
| 1788561154 | 29.44° C | 35% | 1016.9 hPa | - | - | - | - |
| 1788560264 | 29.44° C | 35% | 1016.8 hPa | - | - | - | - |
| 1788559354 | 29.44° C | 35% | 1016.8 hPa | - | - | - | - |
| 1788558454 | 29.44° C | 35% | 1016.8 hPa | - | - | - | - |
| 1788557554 | 29.44° C | 35% | 1016.8 hPa | - | - | - | - |
| 1788556654 | 30° C | 34% | 1016.8 hPa | - | - | - | - |
| 1788555753 | 30° C | 34% | 1016.8 hPa | - | - | - | - |
| 1788554853 | 30° C | 33% | 1016.8 hPa | - | - | - | - |
| 1788553953 | 30° C | 34% | 1016.7 hPa | - | - | - | - |
| 1788553063 | 30.56° C | 34% | 1016.8 hPa | - | - | - | - |
| 1788552153 | 30.56° C | 34% | 1016.9 hPa | - | - | - | - |
| 1788551253 | 30.56° C | 34% | 1016.9 hPa | - | - | - | - |
* Rain since midnight (hover to see other rain measurements)
** Current wind speed in m/s (hover to see current wind gust speed)